User: anonymous   Login
Location: Azul
(36.7830°S, 59.8500°W)
Time: 02:47:35
(UTC-03:00)
Language:

Oscar 19 - Orbit

View from above orbital plane
View from above orbital plane
View from above satellite
View from above satellite

Ground track
Ground track

The orbit data is extracted from the following two-line orbital elements,

1 20442U 90005G   21295.49649055  .00000020  00000-0  24009-4 0  9998
2 20442  98.7578 252.2096 0012327 143.3436 216.8593 14.33001973659020
Epoch (UTC): 22 October 2021 11:54:56
Eccentricity: 0.0012327
inclination: 98.7578°
perigee height: 773 km
apogee height: 790 km
right ascension of ascending node: 252.2096°
argument of perigee: 143.3436°
revolutions per day: 14.33001973
mean anomaly at epoch: 216.8593°
orbit number at epoch: 65902

The dashed part of the orbit path shows where the satellite is in the earth's shadow,  

DLR